Ontario, OR

2:32 PM MST on November 22, 2017 (GMT -0700)
Ontario Municipal

Weather History for KONO - November, 2013

Change the Weather History Date:

Thursday, November 21, 2013

  Actual Average Record
Temperature  
Mean Temperature 35 °F 35 °F  
Max Temperature 46 °F 45 °F 68 °F (2006)
Min Temperature 23 °F 25 °F 1 °F (1994)
Degree Days  
Heating Degree Days 30 30  
Month to date heating degree days 514 546  
Since 1 July heating degree days 1092 1139  
Cooling Degree Days 0 0  
Month to date cooling degree days 0 0  
Year to date cooling degree days 1299 852  
Moisture  
Dew Point 11 °F    
Average Humidity 47    
Maximum Humidity 68    
Minimum Humidity 25    
Precipitation  
Precipitation 0.00 in 0.04 in 0.34 in (1977)
Month to date precipitation 0.80 0.74  
Year to date precipitation 4.83 8.02  
Sea Level Pressure  
Sea Level Pressure 30.46 in    
Wind  
Wind Speed 14 mph (NW)    
Max Wind Speed 28 mph    
Max Gust Speed 36 mph    
Visibility 10 miles    
Events      
T = Trace of Precipitation, MM = Missing Value Source: NWS Daily Summary

Daily Weather History Graph

Daily Weather History Graph

Search for Another Location

Airport or City:

Trip Planner

Search our weather history database for the weather conditions in past years. The results will help you decide how hot, cold, wet, or windy it might be!

Date:

Astronomy

Nov. 21, 2013 Rise Set
Actual Time 7:51 AM MST 5:16 PM MST
Civil Twilight 7:19 AM MST 5:48 PM MST
Nautical Twilight 6:44 AM MST 6:23 PM MST
Astronomical Twilight 6:09 AM MST 6:57 PM MST
Moon 8:58 PM MST (11/21) 10:59 AM MST (11/21)
Length of Visible Light 10h 28m
Length of Day
9h 25m
Waning Gibbous, 85% of the Moon is Illuminated
Nov 21
Waning Gibbous
Nov 25
Last Quarter
Dec 2
New
Dec 9
First Quarter
Dec 17
Full

Hourly Weather History & Observations

Time (MST) Temp. Windchill Dew Point Humidity Pressure Visibility Wind Dir Wind Speed Gust Speed Precip Events Conditions
12:53 AM 30.0 °F 17.2 °F 7.0 °F 38% 30.22 in 10.0 mi NW 20.7 mph 33.4 mph N/A   Clear
1:53 AM 30.0 °F 16.6 °F 6.1 °F 36% 30.24 in 10.0 mi NW 23.0 mph 32.2 mph N/A   Clear
2:53 AM 30.0 °F 17.5 °F 5.0 °F 35% 30.27 in 10.0 mi NW 19.6 mph 29.9 mph N/A   Clear
3:53 AM 30.0 °F 18.7 °F 6.1 °F 36% 30.30 in 10.0 mi NW 16.1 mph 24.2 mph N/A   Clear
4:53 AM 28.9 °F 15.4 °F 5.0 °F 36% 30.32 in 10.0 mi NW 21.9 mph 29.9 mph N/A   Clear
5:53 AM 28.0 °F 15.3 °F 7.0 °F 41% 30.35 in 10.0 mi NW 18.4 mph - N/A   Clear
6:53 AM 27.0 °F 15.2 °F 8.1 °F 45% 30.39 in 10.0 mi NW 15.0 mph - N/A   Clear
7:53 AM 28.0 °F 16.5 °F 9.0 °F 45% 30.42 in 10.0 mi NW 15.0 mph - N/A   Clear
8:53 AM 28.0 °F 17.5 °F 8.1 °F 43% 30.46 in 10.0 mi NNW 12.7 mph - N/A   Clear
9:53 AM 35.1 °F 26.4 °F 10.0 °F 35% 30.48 in 10.0 mi NW 12.7 mph - N/A   Clear
10:53 AM 37.9 °F 29.2 °F 10.9 °F 33% 30.48 in 10.0 mi NW 15.0 mph - N/A   Clear
11:53 AM 41.0 °F 32.5 °F 10.9 °F 29% 30.48 in 10.0 mi NW 17.3 mph - N/A   Clear
12:53 PM 44.1 °F 36.8 °F 10.9 °F 26% 30.46 in 10.0 mi NNW 16.1 mph - N/A   Clear
1:53 PM 45.0 °F 37.9 °F 12.0 °F 26% 30.46 in 10.0 mi NNW 16.1 mph - N/A   Clear
2:53 PM 45.0 °F 37.9 °F 10.9 °F 25% 30.47 in 10.0 mi NNW 16.1 mph - N/A   Clear
3:53 PM 44.1 °F 36.8 °F 10.9 °F 26% 30.49 in 10.0 mi NNW 16.1 mph - N/A   Clear
4:53 PM 39.9 °F 32.9 °F 14.0 °F 35% 30.50 in 10.0 mi WNW 11.5 mph - N/A   Clear
5:53 PM 36.0 °F 27.1 °F 14.0 °F 41% 30.51 in 10.0 mi NW 13.8 mph - N/A   Clear
6:53 PM 34.0 °F 29.8 °F 14.0 °F 44% 30.55 in 10.0 mi North 4.6 mph - N/A   Clear
7:53 PM 34.0 °F 29.8 °F 12.9 °F 42% 30.58 in 10.0 mi Variable 4.6 mph - N/A   Clear
8:53 PM 34.0 °F 27.2 °F 12.9 °F 42% 30.61 in 10.0 mi WNW 8.1 mph - N/A   Clear
9:53 PM 27.0 °F 23.0 °F 17.1 °F 66% 30.63 in 10.0 mi SW 3.5 mph - N/A   Clear
10:53 PM 27.0 °F - 16.0 °F 63% 30.64 in 10.0 mi Calm Calm - N/A   Clear
11:53 PM 25.0 °F 18.1 °F 15.1 °F 66% 30.66 in 10.0 mi West 5.8 mph - N/A   Clear